Regional Weather Roundup
Issued by NWS

Home | Current Version | Previous Version | Graphics & Text | Print | Product List | Glossary On
Versions: 1 2 3 4 5 6 7 8 9 10 11 12 13 14 15 16 17 18 19 20 21 22 23 24 25 26 27 28 29 30 31 32 33 34 35 36 37 38 39 40 41 42 43 44 45 46 47 48 49 50
000
ASUS43 KFSD 101002
RWRSD

WEATHER ROUNDUP FOR SOUTH DAKOTA
NATIONAL WEATHER SERVICE SIOUX FALLS SD
400 AM CST SUN DEC 10 2017

NOTE: "FAIR" INDICATES FEW OR NO CLOUDS BELOW 12,000 FEET WITH NO
SIGNIFICANT WEATHER AND/OR OBSTRUCTIONS TO VISIBILITY.


SDZ001>005-009-010-012>017-101100-
NORTHWEST AND NORTH CENTRAL SOUTH DAKOTA

CITY           SKY/WX    TMP DP  RH WIND       PRES   REMARKS
BUFFALO          N/A     39  16  39 W20       30.11F
FAITH            N/A     39  17  41 NW17      30.12R
MOBRIDGE       CLEAR     34  24  67 NW7       30.04R WCI  28
$$

SDZ012>016-024>037-041>051-057-063-072>074-101100-
SOUTHWEST AND SOUTH CENTRAL SOUTH DAKOTA

CITY           SKY/WX    TMP DP  RH WIND       PRES   REMARKS
RAPID CTY ARPT CLEAR     42   9  25 NW12      30.18S
PIERRE         CLOUDY    41  20  43 W14       30.07S
CUSTER         CLEAR     43  -2  15 W10       30.24S
ELLSWORTH AFB  CLEAR     48   6  18 NW15      30.17S
PHILIP         CLEAR     46  14  27 NW20G28   30.14S
PINE RIDGE     CLEAR     34  16  47 SW8       30.26S WCI  27
SPEARFISH      FAIR      45   9  23 W12       30.25S
WINNER         FAIR      44  18  35 W17       30.09R
$$

SDZ004>011-016>023-039-040-101100-
NORTHEAST SOUTH DAKOTA

CITY           SKY/WX    TMP DP  RH WIND       PRES   REMARKS
ABERDEEN       CLOUDY    35  28  75 NW14      29.99S WCI  26
WATERTOWN      CLOUDY    30  25  81 NW12      29.93R WCI  20
BROOKINGS      CLOUDY    29  25  85 NW12      29.94R WCI  19
SISSETON         N/A     34  26  72 NW17      29.93R WCI  23
$$

SDZ017-020-022-023-036>040-048>070-101100-
SOUTHEAST SOUTH DAKOTA

CITY           SKY/WX    TMP DP  RH WIND       PRES   REMARKS
SIOUX FALLS    CLEAR     31  25  78 NW9       29.96R WCI  23
HURON          PTCLDY    30  25  81 NW9       30.01R WCI  22
CHAMBERLAIN    CLEAR     42  24  47 NW16G23   30.06R
MITCHELL       CLOUDY    35  26  69 W10       30.02R WCI  27
YANKTON        CLEAR     39  25  57 NW20      30.00R
$$

ABBREVIATIONS USED IN REMARKS
   TC - TEMPERATURE IN CELSIUS
  WCI - WIND CHILL INDEX
   HX - HEAT INDEX
  VSB - VISIBILITY





USA.gov is the U.S. government's official web portal to all federal, state and local government web resources and services.